• Join FlightAware (Why Join?)
  • Login
  • US Flag 
11:18AM EST


 

Airport Tracker/Info


-or-


 

Live Flight TrackerFlight Track Log ✈ N700QA ✈ 11-Apr-2014 ✈ KLAX - KLAS

Flight Track Log - Related Links

Times and Time Zones

All times are in EDT time to prevent confusion due to time zone crossing. See the N700QA flight status page for this flight to view local times or setup timezone preferences in your user account.

Time Position Orientation Groundspeed Altitude Reporting Facility
EDT Latitude Longitude Course Direction KTS MPH feet Rate Location/Type
06:00PM 33.9311 -118.4342 245° Southwest 192 221 1,400  Level Los Angeles Center
06:01PM 33.9008 -118.5136 245° Southwest 240 276 4,300 2,855 Climbing Los Angeles Center
06:03PM 33.8431 -118.5650 216° Southwest 271 312 7,300 2,710 Climbing Los Angeles Center
06:04PM 33.8314 -118.4872 100° East 305 351 9,900 2,419 Climbing Los Angeles Center
06:05PM 33.9197 -118.4508 19° North 329 379 12,300 2,032 Climbing Los Angeles Center
06:06PM 33.9731 -118.3725 51° Northeast 328 377 14,100 1,680 Climbing Los Angeles Center
06:07PM 34.0281 -118.2731 56° Northeast 349 402 15,800 2,064 Climbing Los Angeles Center
06:08PM 34.0836 -118.1728 56° Northeast 357 411 18,400 2,323 Climbing Los Angeles Center
06:09PM 34.1367 -118.0786 56° Northeast 343 395 20,600 1,984 Climbing Los Angeles Center
06:10PM 34.2028 -117.9614 56° Northeast 347 399 22,500 1,548 Climbing Los Angeles Center
06:11PM 34.2606 -117.8589 56° Northeast 364 419 23,800 1,161 Climbing Los Angeles Center
06:12PM 34.3206 -117.7494 56° Northeast 384 442 24,900 576 Climbing Los Angeles Center
06:13PM 34.3906 -117.6269 55° Northeast 415 478 25,000 96 Climbing Los Angeles Center
06:14PM 34.4606 -117.5011 56° Northeast 447 514 25,100 48 Climbing Los Angeles Center
06:15PM 34.5300 -117.3733 57° Northeast 455 524 25,100  Level Los Angeles Center
06:16PM 34.6003 -117.2472 56° Northeast 455 524 25,100  Level Los Angeles Center
06:17PM 34.6833 -117.0950 56° Northeast 455 524 25,100  Level Los Angeles Center
06:18PM 34.7531 -116.9678 56° Northeast 455 524 25,100  Level Los Angeles Center
06:19PM 34.8222 -116.8375 57° Northeast 458 527 25,100 48 Level Los Angeles Center
06:20PM 34.8925 -116.7086 56° Northeast 458 527 25,200  Climbing Los Angeles Center
06:21PM 34.9633 -116.5814 56° Northeast 457 526 25,100 -48 Descending Los Angeles Center
06:22PM 35.0686 -116.4478 46° Northeast 458 527 25,100 -532 Level Los Angeles Center
06:23PM 35.1572 -116.3375 45° Northeast 458 527 24,000 -1,065 Descending Los Angeles Center
06:24PM 35.2569 -116.2756 27° Northeast 428 493 22,900 -1,597 Descending Los Angeles Center
06:25PM 35.3519 -116.2025 32° Northeast 408 470 20,700 -2,419 Descending Los Angeles Center
06:26PM 35.4311 -116.0969 47° Northeast 424 488 17,900 -2,784 Descending Los Angeles Center
06:27PM 35.5178 -115.9664 51° Northeast 419 482 14,900 -2,514 Descending Los Angeles Center
06:28PM 35.5675 -115.9050 45° Northeast 374 430 13,500 -1,742 Descending Los Angeles Center
06:28PM 35.5886 -115.8722 52° Northeast 396 456 13,100 -393 Descending Los Angeles Center
06:29PM 35.6428 -115.8125 42° Northeast 352 405 13,100  Level Los Angeles Center
06:29PM 35.6578 -115.7842 57° Northeast 363 418 13,100  Level Los Angeles Center
06:30PM 35.7028 -115.7192 50° Northeast 354 407 13,100  Level Los Angeles Center
06:30PM 35.7119 -115.6858 71° East 353 406 13,100  Level Los Angeles Center
06:31PM 35.7411 -115.6169 62° Northeast 361 415 13,100  Level Los Angeles Center
06:32PM 35.7672 -115.5825 47° Northeast 356 410 13,100  Level Los Angeles Center
06:32PM 35.8344 -115.5789 North 342 394 13,100  Level Los Angeles Center
06:33PM 35.8708 -115.5769 North 349 402 13,100 -500 Level Los Angeles Center
06:33PM 35.9242 -115.5553 18° North 345 397 12,600 -774 Descending Los Angeles Center
06:34PM 35.9528 -115.5106 52° Northeast 347 399 12,300 -873 Descending Los Angeles Center
06:34PM 35.9789 -115.4683 53° Northeast 334 384 11,800 -952 Descending Los Angeles Center
06:35PM 36.0067 -115.4214 54° Northeast 325 374 11,300 -764 Descending Los Angeles Center
06:35PM 36.0247 -115.3897 55° Northeast 303 349 11,100 -1,065 Descending Los Angeles Center
06:36PM 36.0283 -115.3139 87° East 325 374 10,200 -1,279 Descending Los Angeles Center
06:36PM 36.0256 -115.2833 96° East 315 362 9,800 -1,258 Descending Los Angeles Center
06:37PM 36.0219 -115.2094 93° East 313 360 8,900 -1,279 Descending Los Angeles Center
06:37PM 36.0189 -115.1736 96° East 297 342 8,500 -968 Descending Los Angeles Center
06:38PM 36.0164 -115.1064 93° East 286 329 7,900 -590 Descending Los Angeles Center
06:38PM 36.0122 -115.0828 102° East 252 290 7,900 -677 Level Los Angeles Center
06:39PM 36.0319 -115.0356 63° Northeast 225 259 7,200 -984 Descending Los Angeles Center
06:39PM 36.0439 -115.0300 21° North 209 241 6,900 -871 Descending Los Angeles Center
06:40PM 36.0889 -115.0117 18° North 221 254 6,300 -896 Descending Los Angeles Center
06:40PM 36.1072 -115.0036 20° North 197 227 5,900 -1,452 Descending Los Angeles Center
06:41PM 36.1356 -115.0300 323° Northwest 199 229 4,800 -1,254 Descending Los Angeles Center
06:41PM 36.1378 -115.0547 276° West 193 222 4,500 -762 Descending Los Angeles Center
06:42PM 36.1408 -115.0942 275° West 192 221 4,000 -984 Descending Los Angeles Center
06:42PM 36.1392 -115.1208 266° West 172 198 3,500 -1,258 Descending Los Angeles Center
06:43PM 36.1222 -115.1422 226° Southwest 154 177 2,700 -1,082 Descending Los Angeles Center
06:43PM 36.1108 -115.1489 205° Southwest 126 145 2,400 -677 Descending Los Angeles Center
06:44PM 36.0942 -115.1717 228° Southwest 160 184 2,000 -632 Descending Los Angeles Center
06:46PM 36.0801 -115.1523 238° Southwest  Level Estimated